Weather History for Manitowish Waters, Manitowish, WI

Change the Weather History Date:

Saturday, March 29, 2014

  Actual Average (KARV) Record (KARV)
Temperature  
Mean Temperature 27 °F -  
Max Temperature 39 °F 43 °F 78 °F (1910)
Min Temperature 15 °F 22 °F -7 °F (1964)
Degree Days  
Heating Degree Days 38    
Moisture  
Dew Point 19 °F    
Average Humidity 72    
Maximum Humidity 96    
Minimum Humidity 47    
Precipitation  
Precipitation 0.00 in - - ()
Sea Level Pressure  
Sea Level Pressure 30.19 in    
Wind  
Wind Speed 2 mph (SSE)    
Max Wind Speed 8 mph    
Max Gust Speed -    
Visibility 10 miles    
Events      
Averages and records for this station are not official NWS values.
T = Trace of Precipitation, MM = Missing Value Source: NWS Daily Summary

Daily Weather History Graph

Daily Weather History Graph

Search for Another Location

Airport:

Trip Planner

Search our weather history database for the weather conditions in past years. The results will help you decide how hot, cold, wet, or windy it might be!

Date:

Astronomy

Mar. 29, 2014 Rise Set
Actual Time 6:45 AM CDT 7:24 PM CDT
Civil Twilight 6:14 AM CDT 7:54 PM CDT
Nautical Twilight 5:39 AM CDT 8:30 PM CDT
Astronomical Twilight 5:01 AM CDT 9:07 PM CDT
Moon 5:57 AM CDT (3/29) 6:27 PM CDT (3/29)
Length of Visible Light 13h 39m
Length of Day
12h 39m
Waning Crescent, 2% of the Moon is Illuminated
Mar 29
Waning Crescent
Mar 30
New
Apr 7
First Quarter
Apr 15
Full
Apr 22
Last Quarter

Hourly Weather History & Observations

Time (CDT) Temp. Windchill Dew Point Humidity Pressure Visibility Wind Dir Wind Speed Gust Speed Precip Events Conditions
12:15 AM 21.2 °F - 18.5 °F 89% 30.19 in 10.0 mi Calm Calm - N/A   Scattered Clouds
12:35 AM 21.6 °F - 18.9 °F 89% 30.19 in 10.0 mi Calm Calm - N/A   Mostly Cloudy
12:55 AM 20.5 °F - 18.5 °F 92% 30.19 in 10.0 mi Calm Calm - N/A   Overcast
1:15 AM 21.2 °F - 19.2 °F 92% 30.19 in 10.0 mi Calm Calm - N/A   Overcast
1:35 AM 20.3 °F - 18.5 °F 93% 30.19 in 10.0 mi Calm Calm - N/A   Overcast
1:55 AM 20.7 °F - 19.0 °F 93% 30.19 in 10.0 mi Calm Calm - N/A   Mostly Cloudy
2:15 AM 18.3 °F - 17.4 °F 96% 30.19 in 10.0 mi Calm Calm - N/A   Clear
2:35 AM 18.7 °F - 17.4 °F 95% 30.20 in 10.0 mi Calm Calm - N/A   Scattered Clouds
2:55 AM 16.9 °F - 15.4 °F 94% 30.20 in 10.0 mi Calm Calm - N/A   Scattered Clouds
3:15 AM 16.0 °F - 14.2 °F 93% 30.20 in 10.0 mi Calm Calm - N/A   Scattered Clouds
3:35 AM 15.6 °F - 14.2 °F 94% 30.21 in 7.0 mi Calm Calm - N/A   Mostly Cloudy
3:55 AM 16.2 °F - 14.7 °F 94% 30.21 in 10.0 mi Calm Calm - N/A   Overcast
4:15 AM 16.2 °F - 14.5 °F 93% 30.22 in 10.0 mi Calm Calm - N/A   Overcast
4:35 AM 16.2 °F - 14.5 °F 93% 30.22 in 10.0 mi Calm Calm - N/A   Mostly Cloudy
4:55 AM 16.0 °F - 14.5 °F 94% 30.23 in 10.0 mi Calm Calm - N/A   Overcast
5:15 AM 16.5 °F - 15.1 °F 94% 30.23 in 10.0 mi Calm Calm - N/A   Overcast
5:35 AM 15.6 °F - 13.8 °F 93% 30.23 in 10.0 mi Calm Calm - N/A   Overcast
5:55 AM 15.8 °F - 14.2 °F 93% 30.23 in 10.0 mi Calm Calm - N/A   Overcast
6:15 AM 16.2 °F - 14.5 °F 93% 30.23 in 10.0 mi Calm Calm - N/A   Overcast
6:35 AM 15.8 °F - 14.0 °F 93% 30.24 in 10.0 mi Calm Calm - N/A   Overcast
6:55 AM 15.3 °F - 13.5 °F 93% 30.24 in 10.0 mi Calm Calm - N/A   Overcast
7:15 AM 15.1 °F - 13.3 °F 93% 30.23 in 10.0 mi Calm Calm - N/A   Overcast
7:35 AM 15.6 °F - 13.8 °F 93% 30.24 in 10.0 mi Calm Calm - N/A   Overcast
7:55 AM 16.2 °F - 14.5 °F 93% 30.24 in 10.0 mi Calm Calm - N/A   Overcast
8:15 AM 17.4 °F - 15.8 °F 93% 30.24 in 10.0 mi Calm Calm - N/A   Scattered Clouds
8:35 AM 18.9 °F - 17.4 °F 94% 30.24 in 10.0 mi Calm Calm - N/A   Clear
8:55 AM 21.2 °F - 19.8 °F 94% 30.24 in 10.0 mi Calm Calm - N/A   Clear
9:15 AM 24.1 °F 17.0 °F 22.5 °F 94% 30.24 in 10.0 mi SSE 5.8 mph - N/A   Clear
9:35 AM 27.5 °F 22.2 °F 18.5 °F 69% 30.24 in 10.0 mi South 4.6 mph - N/A   Clear
9:55 AM 28.4 °F 23.3 °F 18.5 °F 66% 30.24 in 10.0 mi South 4.6 mph - N/A   Clear
10:15 AM 28.9 °F 25.2 °F 18.3 °F 65% 30.24 in 10.0 mi SSE 3.5 mph - N/A   Clear
10:35 AM 29.8 °F 24.9 °F 17.6 °F 60% 30.24 in 10.0 mi South 4.6 mph - N/A   Clear
10:55 AM 30.6 °F 25.8 °F 19.2 °F 63% 30.24 in 10.0 mi South 4.6 mph - N/A   Clear
11:15 AM 31.1 °F 25.4 °F 20.3 °F 64% 30.24 in 10.0 mi South 5.8 mph - N/A   Clear
11:35 AM 32.0 °F - 20.8 °F 63% 30.23 in 10.0 mi Calm Calm - N/A   Clear
11:55 AM 32.4 °F - 20.5 °F 62% 30.23 in 10.0 mi Calm Calm - N/A   Clear
12:15 PM 33.8 °F 28.6 °F 20.1 °F 57% 30.22 in 10.0 mi SSW 5.8 mph - N/A   Clear
12:35 PM 34.2 °F 28.2 °F 19.9 °F 56% 30.22 in 10.0 mi SSE 6.9 mph - N/A   Clear
12:55 PM 34.7 °F 28.8 °F 20.8 °F 57% 30.21 in 10.0 mi South 6.9 mph - N/A   Clear
1:15 PM 35.1 °F 28.6 °F 21.0 °F 57% 30.21 in 10.0 mi SSE 8.1 mph - N/A   Scattered Clouds
1:35 PM 35.8 °F 31.9 °F 20.7 °F 54% 30.20 in 10.0 mi SE 4.6 mph - N/A   Clear
1:55 PM 36.7 °F 30.5 °F 20.7 °F 52% 30.20 in 10.0 mi South 8.1 mph - N/A   Clear
2:15 PM 36.9 °F 31.4 °F 19.8 °F 50% 30.19 in 10.0 mi SSE 6.9 mph - N/A   Mostly Cloudy
2:35 PM 36.3 °F 33.7 °F 19.9 °F 52% 30.18 in 10.0 mi South 3.5 mph - N/A   Mostly Cloudy
2:55 PM 36.7 °F 34.1 °F 20.7 °F 52% 30.18 in 10.0 mi SSE 3.5 mph - N/A   Overcast
3:15 PM 37.9 °F 32.7 °F 20.5 °F 49% 30.18 in 10.0 mi South 6.9 mph - N/A   Overcast
3:35 PM 37.6 °F 35.1 °F 20.5 °F 50% 30.16 in 10.0 mi South 3.5 mph - N/A   Mostly Cloudy
3:55 PM 38.7 °F 35.2 °F 20.1 °F 47% 30.15 in 10.0 mi SSE 4.6 mph - N/A   Scattered Clouds
4:15 PM 37.9 °F 34.4 °F 20.1 °F 49% 30.14 in 10.0 mi SSE 4.6 mph - N/A   Mostly Cloudy
4:35 PM 38.7 °F 34.3 °F 20.7 °F 48% 30.14 in 10.0 mi SSE 5.8 mph - N/A   Mostly Cloudy
4:55 PM 39.0 °F 35.7 °F 20.5 °F 47% 30.14 in 10.0 mi SE 4.6 mph - N/A   Mostly Cloudy
5:15 PM 38.8 °F 34.6 °F 21.0 °F 49% 30.14 in 10.0 mi South 5.8 mph - N/A   Mostly Cloudy
5:35 PM 38.1 °F 33.7 °F 21.2 °F 51% 30.14 in 10.0 mi South 5.8 mph - N/A   Mostly Cloudy
5:55 PM 38.5 °F 32.7 °F 21.0 °F 50% 30.14 in 10.0 mi SSE 8.1 mph - N/A   Mostly Cloudy
6:15 PM 38.3 °F 33.9 °F 21.6 °F 51% 30.14 in 10.0 mi SSE 5.8 mph - N/A   Mostly Cloudy
6:35 PM 37.6 °F 31.6 °F 21.7 °F 53% 30.13 in 10.0 mi SSE 8.1 mph - N/A   Scattered Clouds
6:55 PM 37.2 °F 31.9 °F 21.7 °F 54% 30.13 in 10.0 mi SSE 6.9 mph - N/A   Clear
7:15 PM 35.6 °F 30.7 °F 22.1 °F 58% 30.13 in 10.0 mi SSE 5.8 mph - N/A   Clear
7:35 PM 34.7 °F 29.6 °F 22.1 °F 60% 30.13 in 10.0 mi SSE 5.8 mph - N/A   Clear
7:55 PM 34.7 °F 30.6 °F 21.9 °F 60% 30.13 in 10.0 mi SSE 4.6 mph - N/A   Clear
8:15 PM 32.0 °F 28.7 °F 22.1 °F 67% 30.14 in 10.0 mi SSE 3.5 mph - N/A   Clear
8:35 PM 32.0 °F 27.5 °F 21.7 °F 66% 30.14 in 10.0 mi SSE 4.6 mph - N/A   Clear
8:55 PM 31.6 °F 27.0 °F 21.7 °F 67% 30.13 in 10.0 mi SSE 4.6 mph - N/A   Clear
9:15 PM 31.6 °F 27.0 °F 21.4 °F 66% 30.14 in 10.0 mi South 4.6 mph - N/A   Clear
9:35 PM 30.7 °F 26.0 °F 21.0 °F 67% 30.13 in 10.0 mi SSE 4.6 mph - N/A   Clear
9:55 PM 29.3 °F 23.2 °F 20.7 °F 70% 30.14 in 10.0 mi SSE 5.8 mph - N/A   Clear
10:15 PM 30.2 °F 24.3 °F 20.5 °F 67% 30.12 in 10.0 mi South 5.8 mph - N/A   Clear
10:35 PM 29.8 °F 23.0 °F 19.9 °F 67% 30.12 in 10.0 mi South 6.9 mph - N/A   Clear
10:55 PM 29.7 °F 22.8 °F 19.6 °F 66% 30.12 in 10.0 mi South 6.9 mph - N/A   Clear
11:15 PM 29.3 °F 23.2 °F 19.4 °F 67% 30.12 in 10.0 mi SSE 5.8 mph - N/A   Clear
11:35 PM 28.2 °F 22.0 °F 19.0 °F 68% 30.12 in 10.0 mi South 5.8 mph - N/A   Clear
11:55 PM 28.6 °F 21.5 °F 19.0 °F 67% 30.12 in 10.0 mi South 6.9 mph - N/A   Clear